[[{"header":{"parameterUnit":"m.s-1","parameterCategory":1,"la1":30.2991,"la2":30.254,"lo1":-89.0895,"lo2":-89.0444,"dy":0.0017,"dx":0.0017,"nx":28,"ny":28,"refTime":"2023-10-09T03:00:00:Z","depth":0,"parameterNumber":2,"parameterNumberName":"U-component_of_WINDS"},"data":[0,0,0,0,0,0,0,0,0,0,0,0,0,0,0,0,0,0,0,0,0,0,0,0,0,0,0,0,0,0,0,0,0,0,0,0,0,0,0,0,0,0,0,0,0,0,0,0,0,0,0,0,0,0,0,0,0,0,1.0595,1.0595,0,1.0551,1.055,1.055,1.0466,1.0464,1.0463,1.0461,1.0418,1.0418,1.0419,0,0,0,0,0,0,0,0,0,0,0,0,0,1.0609,1.0609,1.0595,1.0595,1.0594,1.0551,1.055,1.055,1.0466,1.0464,1.0462,1.046,1.0418,1.0418,1.0419,0,0,0,0,0,0,0,0,0,0,0,0,0,1.0588,1.0609,1.0595,1.0547,1.0542,1.0551,1.055,1.055,1.0467,1.0464,1.0462,1.0459,1.0418,1.0418,1.0419,1.0471,0,0,1.042,1.0421,0,0,0,0,0,0,0,0,1.0589,1.0588,1.0555,1.055,1.0545,1.0511,1.0539,1.0523,1.0467,1.0495,1.0461,1.0458,1.0451,1.0449,1.0446,1.0469,1.0468,1.042,1.0421,1.0421,1.0421,0,0,0,0,0,0,0,1.0591,1.0589,1.0578,1.0554,1.0548,1.0528,1.0523,1.0536,1.0488,1.0493,1.0487,1.0482,1.0448,1.0446,1.0444,1.0467,1.042,1.0421,1.0421,1.0422,1.0533,1.0535,0,0,0,0,0,0,1.0599,1.0591,1.0579,1.0576,1.0561,1.053,1.0524,1.0525,1.0487,1.0479,1.0485,1.0479,1.0446,1.0444,1.0442,1.0503,1.0421,1.0422,1.0422,1.053,1.0533,1.0536,0,0,0,0,0,0,1.06,1.0599,1.0581,1.0582,1.0578,1.0532,1.0534,1.0525,1.0523,1.0481,1.0472,1.0491,1.0444,1.0442,1.0465,1.05,1.0422,1.0422,1.0527,1.0531,1.0535,1.0623,0,0,0,0,0,0,1.06,1.0599,1.0619,1.0583,1.0578,1.0604,1.0536,1.0526,1.0524,1.0515,1.0485,1.0477,1.0442,1.0465,1.0466,1.0499,1.0423,1.0524,1.0529,1.0533,1.0617,1.063,1.0641,0,0,0,0,0,1.0601,1.0646,1.062,1.0619,1.0601,1.0606,1.0603,1.0561,1.0527,1.0546,1.0519,1.0478,1.0496,1.0468,1.0468,1.0503,1.0521,1.0527,1.0533,1.0612,1.0627,1.064,0,0,0,0,0,0,1.0687,1.064,1.0611,1.0645,1.063,1.0592,1.0615,1.0579,1.0574,1.0566,1.0515,1.0508,1.0539,1.0523,1.0492,1.0552,1.0502,1.0508,1.0562,1.0576,1.0588,1.0592,1.0423,0,0,0,0,0,1.071,1.0717,1.0676,1.071,1.0704,1.0661,1.0661,1.063,1.0613,1.0606,1.0581,1.0567,1.0569,1.0571,1.0571,1.0614,1.0607,1.0638,1.065,1.066,1.0666,1.0689,1.0703,1.0555,1.0555,1.0555,0,0,1.0757,1.0732,1.074,1.0726,1.0711,1.0721,1.0656,1.0668,1.0675,1.0608,1.0629,1.061,1.059,1.0624,1.0638,1.0612,1.0705,1.0667,1.0675,1.0676,1.0696,1.071,1.0723,1.0559,1.0559,1.0558,0,0,1.0849,1.083,1.0857,1.0843,1.082,1.0792,1.0798,1.0765,1.075,1.077,1.072,1.0728,1.0732,1.0721,1.0715,1.0803,1.0766,1.0804,1.0867,1.0889,1.0901,1.0911,1.0944,1.0956,1.0811,1.0811,1.0811,0,1.0911,1.0923,1.0875,1.0891,1.0887,1.0826,1.0854,1.0842,1.0822,1.0821,1.0791,1.0796,1.0779,1.0809,1.0831,1.0828,1.0835,1.0808,1.0903,1.0913,1.0921,1.0952,1.0964,1.0816,1.0815,1.0815,1.0814,0,1.1001,1.101,1.1034,1.1015,1.1013,1.1035,1.0992,1.0996,1.0965,1.094,1.0962,1.0938,1.0933,1.0937,1.0907,1.0964,1.0949,1.0912,1.0861,1.0941,1.0969,1.098,1.0823,1.0821,1.082,1.0818,0,0,1.1146,1.11,1.111,1.1101,1.1072,1.1079,1.1098,1.1092,1.1097,1.1085,1.1101,1.1106,1.1072,1.1066,1.1034,1.1054,1.1127,1.1015,1.1013,1.1038,1.119,1.1219,1.1233,1.1101,1.1103,1.1105,1.1192,0,1.1232,1.1262,1.122,1.126,1.1269,1.1211,1.1227,1.1212,1.1189,1.1193,1.1168,1.1173,1.1127,1.1123,1.114,1.1114,1.1157,1.1107,1.1117,1.1118,1.1125,1.1247,1.1278,1.1362,1.1202,1.1204,1.1206,0,1.1337,1.133,1.137,1.1339,1.1341,1.1357,1.1349,1.1353,1.1335,1.1316,1.131,1.1272,1.129,1.1239,1.1263,1.1231,1.1232,1.122,1.1222,1.1223,1.1168,1.1253,1.1387,1.14,1.1222,1.1221,1.122,0,1.1441,1.1441,1.1465,1.1459,1.1423,1.1436,1.1422,1.1401,1.14,1.1393,1.1392,1.1387,1.1385,1.1383,1.1345,1.1311,1.1374,1.132,1.1361,1.1362,1.1378,1.1378,1.1516,1.1377,1.1376,1.1376,1.1376,0,1.1543,1.157,1.1512,1.1527,1.1556,1.1508,1.1539,1.1519,1.15,1.1512,1.1461,1.1472,1.142,1.1427,1.1397,1.1423,1.1422,1.1408,1.1401,1.1414,1.1416,1.1415,1.1409,1.1379,1.1379,1.1378,1.1378,0,1.1664,1.1626,1.1649,1.1613,1.1604,1.1628,1.1597,1.161,1.1584,1.1598,1.1599,1.1558,1.1563,1.1524,1.1522,1.1502,1.1542,1.1523,1.1548,1.1543,1.1587,1.1584,1.173,1.1748,1.1596,1.1598,1.1599,0,1.1733,1.1752,1.1718,1.1722,1.171,1.1716,1.1715,1.1668,1.167,1.165,1.1666,1.1667,1.1665,1.1676,1.1646,1.1644,1.1626,1.1677,1.1625,1.1639,1.1629,1.1629,1.1631,1.1689,1.1691,1.1692,1.1694,0,1.1858,1.1838,1.1838,1.1832,1.1832,1.1826,1.1815,1.1821,1.1771,1.1775,1.1779,1.1777,1.1775,1.1777,1.1769,1.1755,1.1717,1.171,1.172,1.1734,1.1749,1.1743,1.158,1.1707,1.1706,1.1705,1.1704,1.1704,1.1956,1.1971,1.195,1.1952,1.1939,1.1931,1.1942,1.1916,1.1919,1.1913,1.1885,1.1895,1.1876,1.1862,1.1852,1.1859,1.1834,1.1848,1.1852,1.1856,1.1865,1.1746,1.1857,1.1857,1.1856,1.1856,1.1856,0,1.2081,1.2064,1.2066,1.2053,1.2055,1.2018,1.2004,1.2009,1.2018,1.2003,1.2002,1.2008,1.2009,1.198,1.1978,1.1989,1.1972,1.1991,1.199,1.1988,1.1886,1.1879,1.2005,1.2005,1.2005,1.2005,1.2005,1.2005,1.2146,1.217,1.2148,1.2165,1.2148,1.2157,1.2153,1.2145,1.2133,1.2142,1.2142,1.2123,1.2102,1.2099,1.2099,1.209,1.2092,1.2118,1.2103,1.2009,1.1995,1.1981,1.1974,1.2118,1.2118,1.2204,1.2205,1.2206]},{"header":{"parameterUnit":"m.s-1","parameterCategory":1,"la1":30.2991,"la2":30.254,"lo1":-89.0895,"lo2":-89.0444,"dy":0.0017,"dx":0.0017,"nx":28,"ny":28,"refTime":"2023-10-09T03:00:00:Z","depth":0,"parameterNumber":3,"parameterNumberName":"V-component_of_WINDS"},"data":[0,0,0,0,0,0,0,0,0,0,0,0,0,0,0,0,0,0,0,0,0,0,0,0,0,0,0,0,0,0,0,0,0,0,0,0,0,0,0,0,0,0,0,0,0,0,0,0,0,0,0,0,0,0,0,0,0,0,-1.462,-1.462,0,-1.4635,-1.4635,-1.4636,-1.4632,-1.4632,-1.4631,-1.4631,-1.4646,-1.4647,-1.4648,0,0,0,0,0,0,0,0,0,0,0,0,0,-1.4589,-1.4589,-1.462,-1.462,-1.4621,-1.4635,-1.4635,-1.4636,-1.4632,-1.4632,-1.4631,-1.4631,-1.4646,-1.4647,-1.4648,0,0,0,0,0,0,0,0,0,0,0,0,0,-1.4603,-1.4589,-1.462,-1.4621,-1.4621,-1.4635,-1.4635,-1.4636,-1.4632,-1.4632,-1.4631,-1.4631,-1.4646,-1.4647,-1.4648,-1.4663,0,0,-1.4651,-1.4652,0,0,0,0,0,0,0,0,-1.4602,-1.4604,-1.462,-1.4621,-1.4621,-1.4631,-1.463,-1.4645,-1.4632,-1.4628,-1.4631,-1.4631,-1.4642,-1.4643,-1.4647,-1.4664,-1.4664,-1.4651,-1.4652,-1.4652,-1.4652,0,0,0,0,0,0,0,-1.4601,-1.4603,-1.4626,-1.4621,-1.4621,-1.462,-1.4622,-1.4633,-1.4637,-1.4628,-1.4628,-1.463,-1.4642,-1.4646,-1.4647,-1.4664,-1.4651,-1.4652,-1.4653,-1.4653,-1.4693,-1.4694,0,0,0,0,0,0,-1.46,-1.4603,-1.4626,-1.4627,-1.461,-1.4621,-1.4623,-1.4628,-1.4637,-1.4638,-1.463,-1.463,-1.4644,-1.4646,-1.4648,-1.4665,-1.4652,-1.4653,-1.4654,-1.4693,-1.4694,-1.4694,0,0,0,0,0,0,-1.4599,-1.4602,-1.4625,-1.4615,-1.4617,-1.4622,-1.4628,-1.4629,-1.4633,-1.4638,-1.4639,-1.4633,-1.4644,-1.4646,-1.4659,-1.4666,-1.4654,-1.4655,-1.4692,-1.4693,-1.4694,-1.47,0,0,0,0,0,0,-1.4598,-1.4602,-1.4608,-1.4615,-1.4618,-1.4636,-1.4629,-1.463,-1.4635,-1.4634,-1.4642,-1.4643,-1.4644,-1.4657,-1.466,-1.4667,-1.4655,-1.4692,-1.4693,-1.4694,-1.4699,-1.4701,-1.4702,0,0,0,0,0,-1.4597,-1.4609,-1.4608,-1.4611,-1.4625,-1.4636,-1.4638,-1.464,-1.4635,-1.4641,-1.4644,-1.4642,-1.4665,-1.4659,-1.4662,-1.4669,-1.4691,-1.4692,-1.4693,-1.4699,-1.4701,-1.4702,0,0,0,0,0,0,-1.4602,-1.461,-1.4609,-1.4623,-1.4629,-1.4636,-1.4643,-1.4642,-1.4649,-1.4648,-1.465,-1.4652,-1.4664,-1.4668,-1.4661,-1.4683,-1.4677,-1.4679,-1.468,-1.4682,-1.4684,-1.4682,-1.4656,0,0,0,0,0,-1.4605,-1.4614,-1.462,-1.4632,-1.4635,-1.4639,-1.4644,-1.4644,-1.465,-1.4653,-1.4657,-1.4664,-1.4672,-1.4677,-1.4686,-1.47,-1.4702,-1.4706,-1.4708,-1.4709,-1.471,-1.4718,-1.472,-1.4697,-1.4697,-1.4697,0,0,-1.4611,-1.4616,-1.4622,-1.4633,-1.4638,-1.4646,-1.4641,-1.465,-1.4657,-1.4654,-1.4666,-1.467,-1.4677,-1.4691,-1.4697,-1.4694,-1.4717,-1.4711,-1.4711,-1.4712,-1.4719,-1.4721,-1.4723,-1.4698,-1.4698,-1.4698,0,0,-1.4626,-1.4631,-1.4641,-1.4646,-1.4653,-1.4656,-1.4658,-1.4665,-1.4667,-1.4679,-1.4678,-1.4685,-1.47,-1.4705,-1.4709,-1.4726,-1.4724,-1.4729,-1.4736,-1.4744,-1.4745,-1.4747,-1.4752,-1.4754,-1.473,-1.473,-1.473,0,-1.4633,-1.4645,-1.4647,-1.4656,-1.4661,-1.466,-1.467,-1.4675,-1.4684,-1.4687,-1.4684,-1.4702,-1.4707,-1.4721,-1.4725,-1.4729,-1.4732,-1.4727,-1.4745,-1.4747,-1.4748,-1.4753,-1.4755,-1.473,-1.473,-1.473,-1.473,0,-1.4653,-1.4662,-1.4669,-1.4678,-1.4684,-1.4694,-1.4696,-1.4702,-1.4702,-1.4705,-1.4717,-1.4723,-1.4731,-1.4735,-1.4735,-1.4749,-1.4747,-1.4745,-1.4739,-1.4751,-1.4756,-1.4758,-1.4731,-1.4731,-1.4731,-1.4731,0,0,-1.4671,-1.468,-1.4683,-1.4687,-1.4695,-1.4702,-1.4711,-1.472,-1.4725,-1.4731,-1.4739,-1.4752,-1.4749,-1.4754,-1.4755,-1.4761,-1.4774,-1.4758,-1.4758,-1.476,-1.4789,-1.4791,-1.4793,-1.4773,-1.4773,-1.4773,-1.4788,0,-1.4686,-1.4703,-1.4704,-1.472,-1.4728,-1.4726,-1.4735,-1.474,-1.4743,-1.475,-1.4753,-1.4762,-1.4758,-1.4761,-1.4767,-1.4771,-1.4779,-1.477,-1.478,-1.478,-1.4777,-1.4796,-1.4797,-1.4811,-1.479,-1.4791,-1.4791,0,-1.4706,-1.4713,-1.4729,-1.4735,-1.4738,-1.4746,-1.4754,-1.4761,-1.4767,-1.4769,-1.4774,-1.4774,-1.4784,-1.4778,-1.4792,-1.4785,-1.4789,-1.4792,-1.4792,-1.4793,-1.4786,-1.4796,-1.4816,-1.4817,-1.4794,-1.4794,-1.4793,0,-1.4717,-1.4731,-1.4742,-1.4745,-1.4753,-1.4758,-1.4761,-1.4767,-1.4772,-1.4779,-1.4782,-1.4791,-1.4795,-1.4801,-1.4803,-1.4799,-1.4817,-1.4811,-1.4818,-1.4818,-1.4821,-1.4821,-1.4841,-1.4825,-1.4825,-1.4825,-1.4825,0,-1.4734,-1.4743,-1.4747,-1.4753,-1.4764,-1.4765,-1.4776,-1.4779,-1.4784,-1.4792,-1.4791,-1.4798,-1.4801,-1.4808,-1.481,-1.4821,-1.4823,-1.4824,-1.4824,-1.4824,-1.4824,-1.4826,-1.4825,-1.4825,-1.4825,-1.4825,-1.4825,0,-1.4748,-1.475,-1.4762,-1.4768,-1.477,-1.4778,-1.4783,-1.4789,-1.4792,-1.4801,-1.4803,-1.4808,-1.4816,-1.4819,-1.483,-1.4831,-1.4843,-1.4843,-1.4841,-1.4841,-1.4847,-1.4847,-1.487,-1.4873,-1.4855,-1.4855,-1.4855,0,-1.4758,-1.4765,-1.4772,-1.4776,-1.478,-1.4788,-1.4793,-1.4795,-1.48,-1.4807,-1.4813,-1.4821,-1.4828,-1.4842,-1.4846,-1.4854,-1.4854,-1.4861,-1.4855,-1.4854,-1.4853,-1.4853,-1.4853,-1.4862,-1.4862,-1.4863,-1.4863,0,-1.4775,-1.4776,-1.4783,-1.479,-1.4796,-1.4802,-1.4808,-1.4812,-1.4815,-1.482,-1.4829,-1.4834,-1.4845,-1.4853,-1.4861,-1.4865,-1.4864,-1.4865,-1.4867,-1.4866,-1.4864,-1.4865,-1.4843,-1.4864,-1.4864,-1.4864,-1.4864,-1.4864,-1.4787,-1.4793,-1.4799,-1.4807,-1.4811,-1.4816,-1.4823,-1.4826,-1.4833,-1.4841,-1.4842,-1.4851,-1.4858,-1.4868,-1.4872,-1.488,-1.4878,-1.4881,-1.4881,-1.4882,-1.4882,-1.4864,-1.4881,-1.4881,-1.4881,-1.4881,-1.4881,0,-1.4804,-1.4807,-1.4814,-1.4822,-1.4828,-1.4827,-1.4833,-1.4838,-1.4846,-1.4852,-1.4859,-1.4869,-1.4877,-1.4881,-1.4889,-1.4894,-1.4894,-1.4896,-1.4896,-1.4897,-1.4884,-1.4881,-1.4896,-1.4896,-1.4896,-1.4896,-1.4896,-1.4896,-1.4813,-1.4823,-1.4825,-1.4837,-1.4841,-1.485,-1.4853,-1.4858,-1.4863,-1.4873,-1.488,-1.4883,-1.4888,-1.4897,-1.4904,-1.4905,-1.4908,-1.491,-1.4911,-1.4899,-1.4898,-1.4896,-1.4893,-1.4911,-1.4911,-1.4923,-1.4923,-1.4924]}]]